Location: Chandrammap?lem
(16.9200°N, 81.0051°E)
Time: 02:53:33
(UTC+00:00)

IRS-1D - Pass Details

Date: 29 May 2024
Orbit: 738 x 813 km, 98.8° (Epoch: 21 June)

Event Time Altitude Azimuth Distance (km) Brightness Sun altitude
Rises 21:38:59 0° 22° (NNE) 3,303 7.6 -30.3°
Reaches altitude 10° 21:41:26 10° 28° (NNE) 2,363 6.8 -29.9°
Maximum altitude 21:46:25 45° 101° (E) 1,056 4.4 -28.9°
Enters shadow 21:47:18 41° 129° (SE) 1,118 4.3 -28.8°
